NETSAT-4

Last updated on Thu Oct 16 2025 00:03:48 GMT+0000 (Coordinated Universal Time)

1 46504U 20068U 25288.56623472 .00020421 00000+0 61893-3 0 9993 2 46504 97.8575 274.0164 0009408 105.6362 254.5919 15.34137305278149
UTC large
Height (km)
Speed (km/s)
/
Latitude / Longitude
Inclination (degrees)
Orbital Period (minutes)
Azimuth
Elevation
Range (km)
Doppler Factor

Next 0 passes for location: London (51.5072 / 0.1276)

Sorry there are no passes over London.